Location: Camerons Lookout
(40.9833°S, 175.9333°E)
Time: 11:19:35
(UTC+00:00)

Feng Yun 1-1 Rocket - Pass Details

Date: 14 January 2026
Orbit: 830 x 932 km, 99.0° (Epoch: 16 February)

Event Time Altitude Azimuth Distance (km) Brightness Sun altitude
Rises 09:10:35 0° 164° (SSE) 3,478 7.8 -13.1°
Reaches altitude 10° 09:13:02 10° 161° (SSE) 2,520 7.0 -13.4°
Maximum altitude 09:18:36 69° 78° (ENE) 911 4.2 -14.2°
Drops below altitude 10° 09:23:59 10° 354° (N) 2,445 6.2 -14.9°
Enters shadow 09:24:29 - 353° (N) 2,636 6.4 -14.9°
